Grand Forks Air Force Base, ND

2:20 PM CDT on July 25, 2016 (GMT -0500)
Grand Forks International

Weather History for KGFK - June, 2013

Change the Weather History Date:

Monday, June 17, 2013

  Actual Average Record
Temperature  
Mean Temperature 68 °F 65 °F  
Max Temperature 79 °F 77 °F 100 °F (1995)
Min Temperature 57 °F 53 °F 38 °F (1948)
Degree Days  
Heating Degree Days 0 3  
Month to date heating degree days 77 76  
Since 1 June heating degree days 77 76  
Since 1 July heating degree days 9965 9488  
Cooling Degree Days 3 3  
Month to date cooling degree days 20 31  
Year to date cooling degree days 29 48  
Since 1 June cooling degree days 20 31  
Growing Degree Days 18 (Base 50)    
Moisture  
Dew Point 54 °F    
Average Humidity 65    
Maximum Humidity 93    
Minimum Humidity 37    
Precipitation  
Precipitation 0.04 in 0.12 in 1.67 in (2010)
Month to date precipitation 2.35 1.87  
Year to date precipitation 10.52 7.59  
Snow  
Snow 0.00 in 0.00 in - ()
Month to date snowfall 0.0 0.0  
Since 1 June snowfall 0.0 0.0  
Since 1 July snowfall 50.2 47.4  
Snow Depth 0.00 in    
Sea Level Pressure  
Sea Level Pressure 29.94 in    
Wind  
Wind Speed 9 mph (NNW)    
Max Wind Speed 18 mph    
Max Gust Speed 28 mph    
Visibility 10 miles    
Events      
T = Trace of Precipitation, MM = Missing Value Source: NWS Daily Summary

Daily Weather History Graph

Daily Weather History Graph

Search for Another Location

Airport or City:

Trip Planner

Search our weather history database for the weather conditions in past years. The results will help you decide how hot, cold, wet, or windy it might be!

Date:

Astronomy

Jun. 17, 2013 Rise Set
Actual Time 5:28 AM CDT 9:30 PM CDT
Civil Twilight 4:47 AM CDT 10:11 PM CDT
Nautical Twilight 3:50 AM CDT 11:09 PM CDT
Astronomical Twilight 2:13 AM CDT 12:47 AM CDT
Moon 2:48 PM CDT (6/17) 1:30 AM CDT (6/17)
Length of Visible Light 17h 24m
Length of Day
16h 01m
First Quarter, 60% of the Moon is Illuminated
Jun 17
First Quarter
Jun 23
Full
Jun 29
Last Quarter
Jul 8
New
Jul 15
First Quarter

Hourly Weather History & Observations

Time (CDT) Temp. Dew Point Humidity Pressure Visibility Wind Dir Wind Speed Gust Speed Precip Events Conditions
12:53 AM 61.0 °F 54.0 °F 78% 29.84 in 10.0 mi WNW 5.8 mph - N/A   Clear
1:53 AM 60.1 °F 54.0 °F 80% 29.84 in 10.0 mi West 5.8 mph - N/A   Scattered Clouds
2:53 AM 59.0 °F 55.0 °F 87% 29.85 in 10.0 mi WNW 5.8 mph - N/A   Scattered Clouds
3:53 AM 57.9 °F 54.0 °F 87% 29.86 in 10.0 mi WNW 3.5 mph - N/A   Scattered Clouds
4:53 AM 57.9 °F 54.0 °F 87% 29.86 in 10.0 mi NW 5.8 mph - N/A   Mostly Cloudy
5:53 AM 57.0 °F 55.0 °F 93% 29.88 in 10.0 mi NW 6.9 mph - N/A   Scattered Clouds
6:53 AM 59.0 °F 55.0 °F 87% 29.90 in 10.0 mi NNW 9.2 mph - N/A   Partly Cloudy
7:53 AM 62.1 °F 57.0 °F 84% 29.92 in 10.0 mi NNW 12.7 mph - N/A   Scattered Clouds
8:11 AM 62.6 °F 57.2 °F 82% 29.93 in 10.0 mi NNW 12.7 mph 19.6 mph N/A   Mostly Cloudy
8:31 AM 62.6 °F 57.2 °F 82% 29.93 in 10.0 mi NNW 11.5 mph - N/A   Scattered Clouds
8:53 AM 64.9 °F 59.0 °F 81% 29.94 in 10.0 mi NNW 11.5 mph - N/A   Mostly Cloudy
9:53 AM 66.9 °F 59.0 °F 76% 29.94 in 10.0 mi NNW 13.8 mph 23.0 mph N/A   Mostly Cloudy
10:53 AM 68.0 °F 60.1 °F 76% 29.95 in 10.0 mi North 17.3 mph - N/A   Mostly Cloudy
11:53 AM 66.9 °F 57.9 °F 73% 29.98 in 10.0 mi NNE 11.5 mph - N/A   Overcast
12:53 PM 71.1 °F 57.9 °F 63% 29.98 in 10.0 mi NNE 15.0 mph 18.4 mph 0.04 in   Mostly Cloudy
1:53 PM 73.9 °F 55.0 °F 52% 29.98 in 10.0 mi NE 10.4 mph - N/A   Mostly Cloudy
2:53 PM 75.9 °F 54.0 °F 46% 29.97 in 10.0 mi NNE 11.5 mph 18.4 mph N/A   Mostly Cloudy
3:53 PM 77.0 °F 52.0 °F 42% 29.97 in 10.0 mi NE 11.5 mph 18.4 mph N/A   Mostly Cloudy
4:53 PM 78.1 °F 50.0 °F 37% 29.97 in 10.0 mi NE 12.7 mph 27.6 mph N/A   Mostly Cloudy
5:53 PM 75.9 °F 50.0 °F 40% 29.96 in 10.0 mi North 12.7 mph - N/A   Mostly Cloudy
6:53 PM 75.0 °F 48.9 °F 40% 29.97 in 10.0 mi North 13.8 mph - N/A   Mostly Cloudy
7:53 PM 73.0 °F 48.0 °F 41% 29.97 in 10.0 mi North 9.2 mph - N/A   Scattered Clouds
8:53 PM 68.0 °F 50.0 °F 52% 29.97 in 10.0 mi North 5.8 mph - N/A   Scattered Clouds
9:53 PM 63.0 °F 52.0 °F 67% 29.99 in 10.0 mi NW 3.5 mph - N/A   Scattered Clouds
10:53 PM 63.0 °F 55.0 °F 75% 30.01 in 10.0 mi SE 5.8 mph - N/A   Scattered Clouds
11:53 PM 59.0 °F 54.0 °F 83% 30.03 in 10.0 mi SSE 3.5 mph - N/A   Clear